• In Hungary
  • List of Countries
  • For 7 days
  • Water Temperature
  • Satellite Maps
  • Weather Map
  • News
  • Weather Widgets
  • user-avatar
    Login

    Hourly Weather Petrovo

    Today, 18 September, Tuesday

    Time Temperature Precipitation Wind Pressure Humidity
    00:00 +14°C° 0 mm 1 mps 756 mmHg 57%
    01:00 +14°C° 0 mm 1 mps 756 mmHg 58%
    02:00 +13°C° 0 mm 1 mps 755 mmHg 58%
    03:00 +13°C° 0 mm 1 mps 755 mmHg 58%
    04:00 +13°C° 0 mm 1 mps 755 mmHg 59%
    05:00 +13°C° 0 mm 2 mps 756 mmHg 60%
    06:00 +14°C° 0 mm 2 mps 756 mmHg 56%
    07:00 +16°C° 0 mm 2 mps 756 mmHg 52%
    08:00 +17°C° 0 mm 2 mps 756 mmHg 47%
    09:00 +19°C° 0 mm 2 mps 756 mmHg 44%
    10:00 +20°C° 0 mm 2 mps 756 mmHg 41%
    11:00 +21°C° 0 mm 3 mps 756 mmHg 38%
    12:00 +22°C° 0 mm 3 mps 755 mmHg 37%
    13:00 +24°C° 0 mm 3 mps 755 mmHg 37%
    14:00 +24°C° 0 mm 3 mps 755 mmHg 36%
    15:00 +24°C° 0 mm 3 mps 755 mmHg 38%
    16:00 +24°C° 0 mm 2 mps 754 mmHg 41%
    17:00 +23°C° 0 mm 2 mps 754 mmHg 44%
    18:00 +21°C° 0 mm 2 mps 754 mmHg 48%
    19:00 +21°C° 0 mm 1 mps 754 mmHg 52%
    20:00 +19°C° 0 mm 1 mps 754 mmHg 55%
    21:00 +19°C° 0 mm 1 mps 755 mmHg 57%
    22:00 +19°C° 0 mm 1 mps 755 mmHg 59%
    23:00 +18°C° 0 mm 1 mps 755 mmHg 61%

    Tomorrow, 19 September, Wednesday

    Time Temperature Precipitation Wind Pressure Humidity
    00:00 +18°C° 0 mm 1 mps 755 mmHg 62%
    01:00 +18°C° 0 mm 1 mps 755 mmHg 64%
    02:00 +16°C° 0 mm 1 mps 755 mmHg 66%
    03:00 +16°C° 0 mm 1 mps 755 mmHg 67%
    04:00 +16°C° 0 mm 1 mps 755 mmHg 69%
    05:00 +15°C° 0 mm 1 mps 755 mmHg 70%
    06:00 +18°C° 0 mm 1 mps 755 mmHg 66%
    07:00 +18°C° 0 mm 2 mps 755 mmHg 61%
    08:00 +19°C° 0 mm 2 mps 756 mmHg 57%
    09:00 +21°C° 0 mm 2 mps 756 mmHg 52%
    10:00 +24°C° 0 mm 2 mps 756 mmHg 46%
    11:00 +25°C° 0 mm 2 mps 755 mmHg 41%
    12:00 +26°C° 0 mm 2 mps 755 mmHg 38%
    13:00 +27°C° 0 mm 2 mps 755 mmHg 35%
    14:00 +28°C° 0 mm 2 mps 755 mmHg 32%
    15:00 +27°C° 0 mm 2 mps 755 mmHg 34%
    16:00 +27°C° 0 mm 2 mps 754 mmHg 36%
    17:00 +26°C° 0 mm 2 mps 754 mmHg 38%
    18:00 +24°C° 0 mm 1 mps 754 mmHg 41%
    19:00 +23°C° 0 mm 1 mps 754 mmHg 45%
    20:00 +21°C° 0 mm 1 mps 755 mmHg 48%
    21:00 +21°C° 0 mm 1 mps 755 mmHg 49%
    22:00 +21°C° 0 mm 1 mps 755 mmHg 51%
    23:00 +18°C° 0 mm 0 mps 755 mmHg 52%

    Day after tomorrow, 20 September, Thursday

    Time Temperature Precipitation Wind Pressure Humidity
    00:00 +18°C° 0 mm 0 mps 755 mmHg 53%
    01:00 +17°C° 0 mm 0 mps 755 mmHg 54%
    02:00 +19°C° 0 mm 1 mps 755 mmHg 55%
    03:00 +19°C° 0 mm 1 mps 755 mmHg 56%
    04:00 +18°C° 0 mm 1 mps 754 mmHg 57%
    05:00 +18°C° 0 mm 1 mps 754 mmHg 58%
    06:00 +20°C° 0 mm 1 mps 754 mmHg 55%
    07:00 +21°C° 0 mm 1 mps 755 mmHg 51%
    08:00 +23°C° 0 mm 1 mps 755 mmHg 47%
    09:00 +24°C° 0 mm 1 mps 755 mmHg 43%
    10:00 +26°C° 0 mm 1 mps 755 mmHg 40%
    11:00 +27°C° 0 mm 2 mps 755 mmHg 36%
    12:00 +28°C° 0 mm 2 mps 754 mmHg 34%
    13:00 +28°C° 0 mm 2 mps 754 mmHg 32%
    14:00 +29°C° 0 mm 2 mps 754 mmHg 30%
    15:00 +28°C° 0 mm 2 mps 753 mmHg 33%
    16:00 +28°C° 0 mm 2 mps 753 mmHg 35%
    17:00 +27°C° 0 mm 2 mps 753 mmHg 37%
    18:00 +26°C° 0 mm 2 mps 753 mmHg 41%
    19:00 +24°C° 0 mm 2 mps 753 mmHg 44%
    20:00 +23°C° 0 mm 2 mps 753 mmHg 47%
    21:00 +21°C° 0 mm 2 mps 753 mmHg 49%
    22:00 +22°C° 0 mm 1 mps 753 mmHg 51%
    23:00 +21°C° 0 mm 1 mps 753 mmHg 53%

    21 September, Friday

    Time Temperature Precipitation Wind Pressure Humidity
    00:00 +21°C° 0 mm 1 mps 753 mmHg 54%
    01:00 +20°C° 0 mm 1 mps 753 mmHg 55%
    02:00 +20°C° 0 mm 1 mps 753 mmHg 57%
    03:00 +19°C° 0 mm 1 mps 753 mmHg 59%
    04:00 +19°C° 0 mm 1 mps 753 mmHg 61%
    05:00 +19°C° 0 mm 1 mps 753 mmHg 63%
    06:00 +20°C° 0 mm 1 mps 753 mmHg 60%
    07:00 +21°C° 0 mm 1 mps 753 mmHg 57%
    08:00 +23°C° 0 mm 2 mps 754 mmHg 54%
    09:00 +24°C° 0 mm 2 mps 753 mmHg 49%
    10:00 +26°C° 0 mm 2 mps 753 mmHg 45%
    11:00 +27°C° 0 mm 2 mps 753 mmHg 41%
    12:00 +28°C° 0 mm 2 mps 753 mmHg 38%
    13:00 +28°C° 0 mm 2 mps 753 mmHg 35%
    14:00 +29°C° 0 mm 2 mps 752 mmHg 33%
    15:00 +28°C° 0 mm 2 mps 752 mmHg 34%
    16:00 +28°C° 0 mm 2 mps 752 mmHg 36%
    17:00 +27°C° 0 mm 1 mps 752 mmHg 38%
    18:00 +26°C° 0 mm 2 mps 752 mmHg 41%
    19:00 +25°C° 0 mm 2 mps 752 mmHg 44%
    20:00 +23°C° 0 mm 2 mps 752 mmHg 47%
    21:00 +23°C° 0 mm 2 mps 751 mmHg 48%
    22:00 +21°C° 0 mm 2 mps 751 mmHg 50%
    23:00 +22°C° 0 mm 1 mps 751 mmHg 51%

    22 September, Saturday

    Time Temperature Precipitation Wind Pressure Humidity
    00:00 +21°C° 0 mm 1 mps 751 mmHg 52%
    01:00 +21°C° 0 mm 1 mps 751 mmHg 53%
    02:00 +21°C° 0 mm 1 mps 751 mmHg 54%
    03:00 +20°C° 0 mm 1 mps 751 mmHg 55%
    04:00 +20°C° 0 mm 1 mps 751 mmHg 57%
    05:00 +20°C° 0 mm 1 mps 751 mmHg 58%
    06:00 +20°C° 0 mm 2 mps 751 mmHg 54%
    07:00 +21°C° 0 mm 2 mps 751 mmHg 51%
    08:00 +24°C° 0 mm 2 mps 751 mmHg 48%
    09:00 +25°C° 0 mm 2 mps 751 mmHg 43%
    10:00 +27°C° 0 mm 3 mps 750 mmHg 38%
    11:00 +29°C° 0 mm 3 mps 750 mmHg 34%
    12:00 +29°C° 0 mm 3 mps 750 mmHg 32%
    13:00 +30°C° 0 mm 3 mps 749 mmHg 30%
    14:00 +30°C° 0 mm 3 mps 749 mmHg 28%
    15:00 +29°C° 0 mm 3 mps 749 mmHg 30%
    16:00 +29°C° 0 mm 2 mps 748 mmHg 32%
    17:00 +28°C° 0 mm 2 mps 748 mmHg 34%
    18:00 +27°C° 0 mm 2 mps 748 mmHg 36%
    19:00 +25°C° 0 mm 3 mps 748 mmHg 38%
    20:00 +24°C° 0 mm 3 mps 748 mmHg 40%
    21:00 +22°C° 0 mm 3 mps 748 mmHg 43%
    22:00 +22°C° 0 mm 3 mps 748 mmHg 45%
    23:00 +21°C° 0 mm 4 mps 747 mmHg 48%

    23 September, Sunday

    Time Temperature Precipitation Wind Pressure Humidity
    00:00 +20°C° 0 mm 3 mps 747 mmHg 50%
    01:00 +20°C° 0 mm 3 mps 747 mmHg 52%
    02:00 +19°C° 0 mm 2 mps 746 mmHg 54%
    03:00 +19°C° 0 mm 2 mps 746 mmHg 56%
    04:00 +18°C° 0 mm 2 mps 746 mmHg 58%
    05:00 +18°C° 0 mm 2 mps 746 mmHg 60%
    06:00 +19°C° 0 mm 3 mps 746 mmHg 58%
    07:00 +20°C° 0 mm 3 mps 746 mmHg 55%
    08:00 +20°C° 0 mm 3 mps 746 mmHg 53%
    09:00 +22°C° 0 mm 3 mps 745 mmHg 50%
    10:00 +24°C° 0 mm 3 mps 745 mmHg 48%
    11:00 +25°C° 0 mm 4 mps 745 mmHg 45%
    12:00 +23°C° 0 mm 4 mps 745 mmHg 46%
    13:00 +23°C° 0 mm 5 mps 745 mmHg 48%
    14:00 +22°C° 0 mm 6 mps 744 mmHg 50%
    15:00 +18°C° 0.4 mm 7 mps 744 mmHg 58%
    16:00 +16°C° 0.4 mm 7 mps 744 mmHg 66%
    17:00 +12°C° 0.4 mm 8 mps 745 mmHg 75%
    18:00 +11°C° 0.6 mm 8 mps 745 mmHg 77%
    19:00 +10°C° 0.6 mm 7 mps 745 mmHg 79%
    20:00 +10°C° 0.6 mm 7 mps 745 mmHg 81%
    21:00 +10°C° 0.2 mm 6 mps 745 mmHg 81%
    22:00 +10°C° 0.2 mm 6 mps 745 mmHg 81%
    23:00 +10°C° 0.2 mm 5 mps 745 mmHg 81%
    Show more